Погода в Мичуринске

Погода в Мичуринске : погода сейчас, прогноз погоды и архив. Всё, что Вы хотите узнать о погоде в Мичуринске!

Хотите узнать прогноз погоды в Мичуринске? Тогда Вам сюда: Погода в Мичуринске

Поиск расширенной информации на нашем сайте:

Другие новости

Новости СМИ2

Главная страница сайта

Новости сайта

02.10.2013

Напоминаем, что на нашем новом сайте вы можете получить высокодетализированные прогнозы погоды по пунктам России, СНГ и мира (включающие важные для авиации метеовеличины, такие как направление и скорость ветра, видимость, явления погоды, количество и форма облачности, нижняя и верхняя граница облачности), а также ознакомиться с разнообразными материалами по авиационной метеорологии и подборкой полезных ссылок на эту тему.

Сайт Метеоцентр.Азия посвящён разработке технологий оптимизации авиаметеорологического обслуживания, включая проектирование и перспективное создание нескольких автоматизированных авиаметеорологических систем:
- система выпуска высокодетальных прогностических карт явлений погоды для нижнего воздушного пространства по России и ближнему зарубежью;
- система верификации прогнозов TAF (выпускаемых синоптиками официальных АМСГ РФ и ближнего зарубежья) и AUTOTAF (выпускаемых сайтом Метеоцентр.Азия) - выявление ошибок, онлайн-сопоставление с фактической погодой METAR, автоматическое внесение коррективов в прогнозы при резком отклонении фактической погоды от прогноза, подсчёт оправдываемости прогнозов по элементам и в целом;
- система обработки, анализа и отображения авиаметеорологической информации для применения провайдерами метеорологической информации.

Рекомендуем: Купить женские велосипеды giant 2014.

Погода в Мичуринске - сегодня

Время (UTC), дата Ветер
(°,м/с) 
Видим.   Явления Облачность Т
(°С)
Тd
(°С)
f(%) Тe
(°С)
Pmin
(гПа)
dP
(гПа)
Po
(мм)
O2
(г/м3)
Тmin Tmax R s Состояние
почвы
00 26.03.17 270 (З) 10 км    8/8 600 м 
[Sc]
-0.8 -5.7 69 -2  1015.5  0.5  747  302           
03 26.03.17 270 (З) 4000 м  дымка  3/3 600 м 
[Sc]
-2.7 -5.8 79 -4  1016.2  0.6  747  305  -2.7         
06 26.03.17 270 (З) 10 км    9/0 верхняя 
[Ci fib]
+1.1 -4.9 64 1017  1.1  748  301  -3         
09 26.03.17 270 (З) 20000 м    4/4 1000 м 
[Cu med, cong]
+5 -9.4 34 +5  1017  0.2  748  297           
12 26.03.17 270 (З) 20000 м    4/4 1000 м 
[Cu med, cong]
+7.1 -9.8 29 +7  1015.5  -1.4  747  294           
15 26.03.17 290 (З) 20000 м    3/3 1000 м 
[Cu med, cong]
+6.5 -8.5 33 +6  1014.1  -1.3  746  294    +7.5       
18 26.03.17 230 (ЮЗ) 20000 м    ясно 
+0.9 -7.6 53 1013.4  -1.1  745  300           
21 26.03.17 230 (ЮЗ) 20000 м    ясно 
-0.2 -6.4 63 -1  1010.9  -2.5  743  300           
00 27.03.17 230 (ЮЗ) 20000 м    10/10 600 м 
[Sc]
+0.2 -5.7 64 -2  1005.9  -4.9  740  298           
03 27.03.17 230 (ЮЗ) 20000 м    10/10 600 м 
[Sc]
+0.2 -4.9 69 -2  1001.1  -4.7  736  297  -0.4         
06 27.03.17 200 (Ю) 6-10{12}  2000 м  слаб. снег  10/0 средняя 
[As op]
-1 -2.3 91 -5  995.7  -5.4  732  296  -1.1         
09 27.03.17 250 (З) 2{10}  2000 м  слаб. снег  10/0 средняя 
[As op]
+0.7 -0.7 90 993  -2.5  730  294           
12 27.03.17 320 (СЗ) 2000 м  слаб. снег  10/0 средняя 
[As op]
+1 -0.1 92 -1  993.9  731  293           
15 27.03.17 320 (СЗ) 6-12  2000 м  слаб. снег  10/0 средняя 
[As op]
+1.2 -0.8 86 -2  997.4  3.4  734  294    +1.5     
18 27.03.17 320 (СЗ) 4-10  10 км  {снег}  ясно 
+1.4 -3.4 70 -1  1000.4  2.9  736  295           
21 27.03.17 290 (З) 4000 м  дымка  ясно 
-0.3 -3.6 78 -1  1001.8  1.3  737  298           
00 28.03.17 270 (З) 4000 м  дымка  ясно 
-1.8 -4.6 81 -3  1000.9  -1  736  299           
03 28.03.17 200 (Ю) 4000 м  дымка  10/0 средняя 
[As op]
-0.5 -3.6 80 -1  997.2  -3.5  733  296  -1.9    0.0     
06 28.03.17 230 (ЮЗ) 2000 м  дымка  10/0 средняя 
[As op]
-0.2 -1.4 92 -3  992.8  -4.3  730  295           
09 28.03.17 270 (З) 2000 м  слаб. снег  10/0 средняя 
[As op]
+1.9 +0.6 91 +1  991.2  -1.4  729  292           
12 28.03.17 270 (З) 4-10{10}  4000 м  дымка{ливн. осадки, снег}  9/9 600 м кучево-дожд. 
[Cb cap]
+4.3 +0.9 79 +3  991.7  0.6  730  289           
15 28.03.17 320 (СЗ) 6-16{15}  10 км  {ливн. осадки}  9/9 600 м кучево-дожд. 
[Cb cap]
+2.3 -2 73 -1  995.7  3.8  732  293    +5     
18 28.03.17 320 (СЗ) 4-18{17}  20000 м  {ливн. осадки}  10/10 600 м 
[Sc]
+1.2 -4.4 66 -1  1000.9  736  296           
21 28.03.17 320 (СЗ) 4-10{14}  10 км    ясно 
-0.2 -4.5 73 -3  1003.7  2.7  738  298           
00 29.03.17 320 (СЗ) 4{12}  10 км    ясно 
-1.4 -6.2 70 -4  1005.7  1.8  740  300           
Время (UTC), дата Ветер
(°,м/с) 
Видим.   Явления Облачность Т
(°С)
Тd
(°С)
f(%) Тe
(°С)
Pmin
(гПа)
dP
(гПа)
Po
(мм)
O2
(г/м3)
Тmin Tmax R s Состояние
почвы

Для получения пояснительной информации подведите курсор к названию столбца.

ПОГОДА в Мичуринске - архив

Всё, что Вы хотите узнать о погоде в Мичуринске - удобно и подробно!

Выберите нужную дату (начиная с 1 января 2015* года) и нажмите кнопку "Найти".
Будут отображены архивные сводки погоды по пункту Мичуринск, начиная с указанной даты.


Отображать данные в формате CSV (для использования в таблицах Excel)


Внимание! Наш архив погоды предназначен исключительно для личного некоммерческого использования в познавательных целях. Если Вам необходимы официальные справки о состоянии погоды (для производственных, юридических, коммерческих и т.п. целей), обращайтесь в органы Росгидромета.

*Примечание: данная дата относится к архиву по метеостанциям СССР (Россия, СНГ, Балтия).
Архив по метеостанциям Зарубежной Европы и Азии (кроме Китая) хранится 10 дней, по другим регионам земного шара (Китай, Африка, Америка, Австралия, Океания) - 1 день.

Мичуринск - район местоположения метеостанции


Название, широта, долгота, высота метеостанции:
Мичуринск 52.9°ш. 40.5°д. 158 м над ур. моря [Российская Федерация]

Дополнительная информация

В oтличие oт бoльшинства пoгoдных сайтoв мы публикуем пoдрoбную метеoинфoрмацию в детальнoм прoфессиoнальнoм фoрмате.

Характеристики температуры и влажнoсти вoздуха измеряются на высoте 2 м в тени вдали oт зданий и деревьев.
Скoрoсть ветра измеряется на высoте 10 м (на урoвне рoста челoвека скoрoсть ветра ниже в 1.5-2 раза). Если метеoстанция нахoдится в гoрoде или в лесу, тo скoрoсть ветра занижена на 2-4 м/с пo сравнению с oткрытым местoм. Скoрoсть ветра над акватoриями крупных рек и oзёр, а также на вершинах хoлмoв на 2-5 м/с выше, чем в oбычных услoвиях.
Атмoсфернoе давление в разных тoчках местнoсти мoжет значительнo oтличаться oт давления на метеoстанции, в зависимoсти oт услoвий рельефа (при пoдъёме на 10 м давление пoнижается примернo на 1 мм рт.ст.).